Location: Invercargill
(46.4000°S, 168.3500°E)
Time: 18:14:40
(UTC+12:00)

CZ-4B R/B - Pass Details

Date: 14 May 2021
Orbit: 809 x 881 km, 99.1° (Epoch: 14 June)

Event Time Altitude Azimuth Distance (km) Brightness Sun altitude
Exits shadow 19:24:13 15° 157° (SSE) 2,097 5.0 -20.4°
Maximum altitude 19:28:40 62° 78° (ENE) 919 3.1 -21.2°
Drops below altitude 10° 19:33:56 10° 357° (N) 2,403 5.6 -22.1°
Sets 19:36:17 0° 353° (N) 3,329 6.4 -22.5°
